User: anonymous   Login
Location: Newark
(41.0400°S, 62.7845°W)
Time: 21:49:18
(UTC+00:00)
Language:

AIST 2D - Orbit

View from above orbital plane
View from above orbital plane
View from above satellite
View from above satellite

Ground track
Ground track

The orbit data is extracted from the following two-line orbital elements,

1 41465U 16026B   22021.62189620  .00007654  00000-0  20613-3 0  9993
2 41465  97.0782 263.0550 0009266 315.6657 101.4820 15.38070219320942
Epoch (UTC): 21 January 2022 14:55:31
Eccentricity: 0.0009266
inclination: 97.0782°
perigee height: 445 km
apogee height: 458 km
right ascension of ascending node: 263.0550°
argument of perigee: 315.6657°
revolutions per day: 15.38070219
mean anomaly at epoch: 101.4820°
orbit number at epoch: 32094

The dashed part of the orbit path shows where the satellite is in the earth's shadow,  

DLR